Content
SEND FEEDBACK

Daily
Averages
Monthly
Summary
Canada

SASKATOON, SASKATCHEWAN


Home > North America > Canada > Saskatchewan
Elevation: 1653 feet     Latitude: 52 10N     Longitude: 106 41W

WEATHER
 
SELECT A DAY
Number of Records: 189,172;   Date Range: 1/1/95 - 9/30/14
 
SHARE

PRINT THIS DATA

[ ← Previous Day ]
WEATHER ALMANAC - FEBRUARY 21, 2013
[ Next Day → ]
[ °C ]   °F
Weather ElementAverageHighLow
Temperature1.7 °F12.2 °F (2:47 pm)-5.8 °F (7:00 am)
Dewpoint-2.8 °F5 °F (2:00 pm)-11.2 °F (7:00 am)
Humidity81.9 %85 % (1:00 am)73 % (1:17 pm)
Barometer30.19 in30.25 in (7:00 am)30.08 in (11:00 pm)
Wind Speed8 mph17.3 mph (6:30 pm)
Weather ElementAverage
Visibility14 mi
Wind DirectionESE (108.6 °)

Weather ElementTotal
Precipitation---
Heating Degree Days61.8 (Base 65)
Averaged from 29 records on February 21, 2013
WEATHER CONDITIONS BREAKOUT
WIND DIRECTION BREAKOUT
WEATHER BY HOUR - FEBRUARY 21, 2013
[ °C ]   °F
Local TimeTemperatureDewpointHumidityBarometerVisibilityWind DirectionWind SpeedGust SpeedPrecipitationEventsConditions
1:00 AM-2.2 °F-5.8 °F85 %30.23 in15.0 miNE (40°)2.3 mphMostly Cloudy
1:20 AM-2.2 °F-5.8 °F85 %30.23 in15.0 miNE (50°)2.3 mphScattered Clouds
2:00 AM-2.2 °F-5.8 °F85 %30.23 in15.0 miESE (120°)3.5 mphIce Crystals
2:42 AM-4.0 °F-7.6 °F85 %30.23 in15.0 miESE (110°)6.9 mphIce Crystals
3:00 AM-2.2 °F-5.8 °F85 %30.23 in15.0 miESE (120°)5.8 mphIce Crystals
4:00 AM-2.2 °F-5.8 °F85 %30.22 in15.0 miESE (110°)3.5 mphSnowLight Snow
5:00 AM-2.2 °F-5.8 °F85 %30.23 in12.0 miEast (100°)5.8 mphSnowLight Snow
5:46 AM-4.0 °F-7.6 °F85 %30.22 in15.0 miESE (110°)5.8 mphIce Crystals
6:00 AM-4.0 °F-7.6 °F85 %30.23 in15.0 miESE (110°)4.6 mphIce Crystals
7:00 AM-5.8 °F-11.2 °F77 %30.25 in15.0 miEast (90°)6.9 mphSnowLight Snow
8:00 AM-2.2 °F-5.8 °F85 %30.24 in15.0 miEast (100°)5.8 mphSnowLight Snow
9:00 AM-4.0 °F-7.6 °F85 %30.24 in15.0 miEast (100°)5.8 mphSnowLight Snow
9:24 AM-4.0 °F-7.6 °F85 %30.24 in15.0 miESE (110°)5.8 mphMostly Cloudy
10:00 AM-0.4 °F-5.8 °F78 %30.25 in15.0 miEast (100°)5.8 mphMostly Cloudy
11:00 AM-0.4 °F-4.0 °F85 %30.24 in15.0 miEast (100°)4.6 mphMostly Cloudy
12:00 PM5.0 °F-0.4 °F78 %30.22 in15.0 miESE (110°)6.9 mphMostly Cloudy
1:00 PM6.8 °F1.4 °F79 %30.20 in15.0 miESE (110°)10.4 mphOvercast
1:17 PM8.6 °F1.4 °F73 %30.19 in15.0 miESE (110°)9.2 mphSnowLight Snow
2:00 PM10.4 °F5.0 °F79 %30.18 in15.0 miSSE (160°)8.1 mphSnowLight Snow
2:47 PM12.2 °F5.0 °F73 %30.17 in10.0 miESE (120°)10.4 mphSnowLight Snow
3:00 PM10.4 °F5.0 °F79 %30.17 in8.0 miSE (140°)11.5 mphSnowLight Snow
4:00 PM10.4 °F5.0 °F79 %30.15 in5.0 miESE (110°)11.5 mphSnowLight Snow Showers
6:00 PM6.8 °F3.2 °F85 %30.15 in10.0 miESE (120°)15.0 mphSnowLight Snow Showers
6:30 PM5.0 °F1.4 °F85 %30.15 in15.0 miESE (120°)17.3 mphOvercast
7:00 PM5.0 °F-0.4 °F78 %30.14 in15.0 miESE (120°)17.3 mphMostly Cloudy
8:00 PM3.2 °F-0.4 °F85 %30.13 in15.0 miESE (120°)12.7 mphMostly Cloudy
9:00 PM3.2 °F-0.4 °F85 %30.11 in15.0 miESE (120°)11.5 mphMostly Cloudy
10:00 PM1.4 °F-4.0 °F78 %30.10 in15.0 miESE (110°)8.1 mphMostly Cloudy
11:00 PM3.2 °F-2.2 °F78 %30.08 in15.0 miESE (110°)8.1 mphMostly Cloudy
Hourly data recorded from CYXE, located miles away from Saskatoon, Saskatchewan







STORIES FROM OUR PARTNERS